パンスターズ彗星

P/2017 B4 ( PanSTARRS )

English version
Home page
Updated on March 25, 2017

---------------------------------------------------------------------

・ プロフィール

発見日 2017年1月28日
発見光度 21.2等
発見者 Pan-STARRS 1 telescope (Haleakala)

・ 写真集

・ 軌道要素

T 2017 Jan. 5.81784 TT                                  MPCW
q   2.8008939            (2000.0)            P               Q
n   0.10640681     Peri.   11.01974     -0.66541060     -0.68675504
a   4.4105198      Node   121.45777     +0.65615540     -0.72498229
e   0.3649515      Incl.   20.05838     +0.35593374     +0.05261364
P   9.26
From 50 observations 2017 Jan. 28-Feb. 5.

・ 光度変化

        m1 = 14.5 + 5 logΔ + 10.0 log r

---------------------------------------------------------------------

軌道要素はM.P.E.C. 2017-E59に掲載されたものです。
光度グラフはComet for Windowsで作成したものです。

---------------------------------------------------------------------

Copyright(C) Seiichi Yoshida (comet@aerith.net). All rights reserved.